Zurück zum Katalog

DELTA 1 DEB

AktivLEO
NORAD 10338·DEBRIS·🇺🇸 United States

Gestartet Jul 14, 1977 von Cape Canaveral Space Force Station

Loading…

Nächste Überflüge (nächste 24 Stunden)

TLE

AktuellSource: Space-Track

Epoche: Sep 14, 2026, 01:25 UTC

1 10338U 77065DM  26257.05917162  .00000871  00000-0  13972-3 0  9994
2 10338  29.0606 213.2233 0615633 196.2679 161.7277 13.84548761426088

Verfolge DELTA 1 DEB in Echtzeit mit AllMySat

Download on the App Store